When you browse on this site, cookies collect data to enhance your experience and personalize the content and advertising you see.
Visit our Privacy Policy to learn more. By continuing to use the site, you agree to this use of cookies and data.
  • In Germany
  • List of Countries
  • For 7 days
  • Water Temperature
  • Weather Map
  • Weather Widgets
  • user-avatar
    Login

    Hourly Weather Canillo

    Today, 27 May, Wednesday

    Time Temperature Precipitation Wind Pressure Humidity
    00:00 +7°C° 0 mm 2 mps 624 mmHg 75%
    01:00 +7°C° 0 mm 2 mps 623 mmHg 72%
    02:00 +8°C° 0 mm 1 mps 623 mmHg 68%
    03:00 +7°C° 0 mm 1 mps 623 mmHg 64%
    04:00 +9°C° 0 mm 1 mps 624 mmHg 64%
    05:00 +10°C° 0 mm 1 mps 624 mmHg 64%
    06:00 +11°C° 0 mm 1 mps 625 mmHg 60%
    07:00 +13°C° 0 mm 1 mps 626 mmHg 54%
    08:00 +15°C° 0 mm 1 mps 627 mmHg 48%
    09:00 +18°C° 0 mm 1 mps 628 mmHg 42%
    10:00 +19°C° 0 mm 1 mps 628 mmHg 42%
    11:00 +19°C° 0 mm 2 mps 628 mmHg 42%
    12:00 +19°C° 0 mm 2 mps 629 mmHg 43%
    13:00 +18°C° 0.3 mm 2 mps 628 mmHg 50%
    14:00 +17°C° 0.3 mm 2 mps 628 mmHg 58%
    15:00 +16°C° 0.3 mm 2 mps 627 mmHg 66%
    16:00 +15°C° 0.6 mm 1 mps 627 mmHg 73%
    17:00 +14°C° 0.6 mm 1 mps 626 mmHg 80%
    18:00 +13°C° 0.6 mm 1 mps 626 mmHg 87%
    19:00 +12°C° 0.2 mm 1 mps 626 mmHg 89%
    20:00 +11°C° 0.2 mm 1 mps 626 mmHg 92%
    21:00 +10°C° 0.2 mm 1 mps 626 mmHg 94%
    22:00 +10°C° 0 mm 1 mps 625 mmHg 94%
    23:00 +10°C° 0 mm 1 mps 625 mmHg 94%

    Tomorrow, 28 May, Thursday

    Time Temperature Precipitation Wind Pressure Humidity
    00:00 +9°C° 0 mm 1 mps 625 mmHg 94%
    01:00 +9°C° 0 mm 1 mps 625 mmHg 94%
    02:00 +9°C° 0 mm 1 mps 624 mmHg 94%
    03:00 +9°C° 0 mm 1 mps 624 mmHg 93%
    04:00 +9°C° 0 mm 1 mps 624 mmHg 90%
    05:00 +10°C° 0 mm 1 mps 624 mmHg 87%
    06:00 +10°C° 0 mm 1 mps 624 mmHg 84%
    07:00 +13°C° 0 mm 1 mps 625 mmHg 71%
    08:00 +15°C° 0 mm 1 mps 626 mmHg 58%
    09:00 +18°C° 0 mm 1 mps 627 mmHg 45%
    10:00 +19°C° 0 mm 1 mps 627 mmHg 43%
    11:00 +20°C° 0 mm 1 mps 627 mmHg 42%
    12:00 +20°C° 0 mm 2 mps 627 mmHg 40%
    13:00 +19°C° 0.2 mm 2 mps 626 mmHg 46%
    14:00 +18°C° 0.2 mm 2 mps 625 mmHg 52%
    15:00 +18°C° 0.2 mm 1 mps 625 mmHg 58%
    16:00 +16°C° 0.4 mm 1 mps 624 mmHg 65%
    17:00 +15°C° 0.4 mm 1 mps 623 mmHg 71%
    18:00 +13°C° 0.4 mm 0 mps 623 mmHg 77%
    19:00 +13°C° 0 mm 1 mps 622 mmHg 81%
    20:00 +11°C° 0 mm 1 mps 622 mmHg 85%
    21:00 +10°C° 0 mm 1 mps 621 mmHg 89%
    22:00 +9°C° 0 mm 1 mps 621 mmHg 88%
    23:00 +9°C° 0 mm 1 mps 620 mmHg 86%

    Day after tomorrow, 29 May, Friday

    Time Temperature Precipitation Wind Pressure Humidity
    00:00 +9°C° 0 mm 1 mps 620 mmHg 85%
    01:00 +8°C° 0 mm 1 mps 620 mmHg 80%
    02:00 +8°C° 0 mm 1 mps 619 mmHg 76%
    03:00 +8°C° 0 mm 1 mps 619 mmHg 71%
    04:00 +9°C° 0 mm 1 mps 619 mmHg 68%
    05:00 +10°C° 0 mm 1 mps 619 mmHg 66%
    06:00 +11°C° 0 mm 1 mps 619 mmHg 64%
    07:00 +13°C° 0 mm 1 mps 620 mmHg 54%
    08:00 +15°C° 0 mm 1 mps 621 mmHg 44%
    09:00 +19°C° 0 mm 1 mps 622 mmHg 35%
    10:00 +20°C° 0 mm 1 mps 622 mmHg 34%
    11:00 +20°C° 0 mm 1 mps 622 mmHg 33%
    12:00 +20°C° 0 mm 2 mps 622 mmHg 32%
    13:00 +20°C° 0.1 mm 2 mps 621 mmHg 37%
    14:00 +19°C° 0.1 mm 2 mps 621 mmHg 42%
    15:00 +19°C° 0.1 mm 2 mps 620 mmHg 47%
    16:00 +17°C° 0.7 mm 2 mps 620 mmHg 59%
    17:00 +15°C° 0.7 mm 2 mps 619 mmHg 71%
    18:00 +13°C° 0.7 mm 1 mps 618 mmHg 83%
    19:00 +12°C° 0.4 mm 1 mps 618 mmHg 86%
    20:00 +11°C° 0.4 mm 1 mps 618 mmHg 90%
    21:00 +9°C° 0.4 mm 1 mps 617 mmHg 94%
    22:00 +9°C° 0 mm 1 mps 617 mmHg 93%
    23:00 +9°C° 0 mm 1 mps 617 mmHg 92%

    30 May, Saturday

    Time Temperature Precipitation Wind Pressure Humidity
    00:00 +8°C° 0 mm 1 mps 617 mmHg 91%
    01:00 +8°C° 0 mm 1 mps 617 mmHg 89%
    02:00 +8°C° 0 mm 1 mps 617 mmHg 88%
    03:00 +7°C° 0 mm 1 mps 617 mmHg 86%
    04:00 +8°C° 0 mm 1 mps 617 mmHg 85%
    05:00 +9°C° 0 mm 1 mps 618 mmHg 85%
    06:00 +10°C° 0 mm 1 mps 618 mmHg 84%
    07:00 +12°C° 0 mm 1 mps 619 mmHg 73%
    08:00 +14°C° 0 mm 1 mps 620 mmHg 61%
    09:00 +16°C° 0 mm 1 mps 621 mmHg 49%
    10:00 +18°C° 0 mm 1 mps 621 mmHg 47%
    11:00 +18°C° 0 mm 2 mps 621 mmHg 45%
    12:00 +19°C° 0 mm 2 mps 621 mmHg 43%
    13:00 +18°C° 0.2 mm 2 mps 621 mmHg 49%
    14:00 +18°C° 0.2 mm 2 mps 620 mmHg 54%
    15:00 +17°C° 0.2 mm 2 mps 620 mmHg 60%
    16:00 +16°C° 0.2 mm 2 mps 620 mmHg 67%
    17:00 +15°C° 0.2 mm 1 mps 619 mmHg 73%
    18:00 +14°C° 0.2 mm 1 mps 619 mmHg 80%
    19:00 +13°C° 0 mm 1 mps 618 mmHg 85%
    20:00 +11°C° 0 mm 1 mps 618 mmHg 90%
    21:00 +9°C° 0 mm 0 mps 618 mmHg 95%
    22:00 +10°C° 0 mm 1 mps 618 mmHg 94%
    23:00 +9°C° 0 mm 1 mps 617 mmHg 93%

    31 May, Sunday

    Time Temperature Precipitation Wind Pressure Humidity
    00:00 +9°C° 0 mm 1 mps 617 mmHg 93%
    01:00 +9°C° 0 mm 1 mps 617 mmHg 91%
    02:00 +9°C° 0 mm 1 mps 617 mmHg 89%
    03:00 +8°C° 0 mm 1 mps 617 mmHg 87%
    04:00 +9°C° 0 mm 1 mps 617 mmHg 82%
    05:00 +10°C° 0 mm 1 mps 618 mmHg 77%
    06:00 +11°C° 0 mm 1 mps 618 mmHg 72%
    07:00 +13°C° 0 mm 1 mps 619 mmHg 61%
    08:00 +16°C° 0 mm 1 mps 620 mmHg 51%
    09:00 +19°C° 0 mm 1 mps 621 mmHg 41%
    10:00 +20°C° 0 mm 1 mps 621 mmHg 39%
    11:00 +20°C° 0 mm 2 mps 621 mmHg 38%
    12:00 +20°C° 0 mm 2 mps 621 mmHg 36%
    13:00 +20°C° 0.1 mm 2 mps 621 mmHg 40%
    14:00 +20°C° 0.1 mm 2 mps 621 mmHg 44%
    15:00 +19°C° 0.1 mm 2 mps 620 mmHg 49%
    16:00 +19°C° 0.4 mm 1 mps 620 mmHg 57%
    17:00 +18°C° 0.4 mm 1 mps 619 mmHg 66%
    18:00 +16°C° 0.4 mm 1 mps 618 mmHg 75%
    19:00 +14°C° 0 mm 1 mps 618 mmHg 79%
    20:00 +13°C° 0 mm 1 mps 618 mmHg 84%
    21:00 +11°C° 0 mm 1 mps 617 mmHg 89%
    22:00 +11°C° 0 mm 1 mps 617 mmHg 88%
    23:00 +11°C° 0 mm 1 mps 617 mmHg 87%

    1 June, Monday

    Time Temperature Precipitation Wind Pressure Humidity
    00:00 +11°C° 0 mm 1 mps 617 mmHg 86%
    01:00 +11°C° 0.1 mm 1 mps 617 mmHg 86%
    02:00 +10°C° 0.1 mm 1 mps 617 mmHg 86%
    03:00 +10°C° 0.1 mm 1 mps 617 mmHg 86%
    04:00 +11°C° 0 mm 1 mps 617 mmHg 83%
    05:00 +12°C° 0 mm 1 mps 617 mmHg 81%
    06:00 +13°C° 0 mm 1 mps 618 mmHg 78%
    07:00 +15°C° 0.2 mm 1 mps 618 mmHg 70%
    08:00 +18°C° 0.2 mm 1 mps 619 mmHg 61%
    09:00 +20°C° 0.2 mm 1 mps 620 mmHg 53%
    10:00 +20°C° 0.8 mm 1 mps 619 mmHg 56%
    11:00 +20°C° 0.8 mm 1 mps 619 mmHg 58%
    12:00 +19°C° 0.8 mm 1 mps 619 mmHg 61%
    13:00 +19°C° 1.7 mm 1 mps 618 mmHg 67%
    14:00 +18°C° 1.7 mm 1 mps 618 mmHg 73%
    15:00 +16°C° 1.7 mm 1 mps 617 mmHg 79%
    16:00 +15°C° 1.6 mm 1 mps 617 mmHg 81%
    17:00 +15°C° 1.6 mm 1 mps 616 mmHg 83%
    18:00 +14°C° 1.6 mm 1 mps 616 mmHg 85%
    19:00 +13°C° 0.1 mm 1 mps 616 mmHg 85%
    20:00 +12°C° 0.1 mm 1 mps 615 mmHg 86%
    21:00 +11°C° 0.1 mm 1 mps 615 mmHg 86%
    22:00 +11°C° 0.1 mm 1 mps 615 mmHg 85%
    23:00 +10°C° 0.1 mm 2 mps 615 mmHg 85%
    Show more